Location: Amsterdam
(30.7274°N, 84.4357°W)
Time: 00:34:41
(UTC+00:00)

Courier 1B Rocket - Pass Details

Date: 08 February 2026
Orbit: 920 x 1201 km, 28.2° (Epoch: 9 March)

Event Time Altitude Azimuth Distance (km) Brightness Sun altitude
Rises 06:29:56 0° 264° (W) 3,875 - -72.0°
Reaches altitude 10° 06:32:37 10° 263° (W) 2,958 - -71.7°
Maximum altitude 06:39:58 75° 179° (S) 1,192 - -70.8°
Drops below altitude 10° 06:47:43 10° 95° (E) 3,113 - -69.7°
Sets 06:50:36 0° 94° (E) 4,088 - -69.3°
